Voltar ao catálogo

FENGYUN 1C DEB

AtivoPO
NORAD 30647·DEBRIS·🇨🇳 China

Lançado May 10, 1999 de Taiyuan Satellite Launch Center

Loading…

Próximas Passagens (próximas 24 horas)

TLE

AtualizadoSource: Space-Track

Época: Sep 14, 2026, 09:21 UTC

1 30647U 99025APE 26257.39026030  .00007549  00000-0  14987-2 0  9996
2 30647  98.9986 217.5153 0030564  56.0515  97.3448 14.62204040 20106

Acompanhe FENGYUN 1C DEB em tempo real com AllMySat

Download on the App Store